EW8735 Weather Reports


time (UTC)temp
C
wind
direction
speed
KPH
gust
KPH
rain 1hr
cm
rain 24hr
cm
rain mn
cm
humidity
%
barometer
mb
20260905143010 10 121 0.0 0.0 0.00 0.00 0.00 84 1014.6
20260905141508 10 222 0.0 0.0 0.00 0.00 0.00 84 1014.3
20260905140008 10 222 0.0 0.0 0.00 0.00 0.00 84 1014.3
20260905134505 10 222 0.0 0.0 0.00 0.00 0.00 83 1014.2
20260905133007 10 247 0.0 0.0 0.00 0.00 0.00 83 1014.1
20260905131503 10 247 0.0 0.0 0.00 0.00 0.00 82 1013.9
20260905130000 10 247 0.0 0.0 0.00 0.00 0.00 80 1013.9
20260905124558 11 247 0.0 0.0 0.00 0.00 0.00 78 1013.9
20260905123100 11 247 0.0 0.0 0.00 0.00 0.00 77 1013.9
20260905121601 11 247 0.0 0.0 0.00 0.00 0.00 78 1013.9
20260905120056 11 247 0.0 0.0 0.00 0.00 0.00 79 1014.0
20260905114555 11 260 0.0 0.0 0.00 0.00 0.00 81 1014.0
20260905113056 11 276 0.0 0.0 0.00 0.00 0.00 79 1013.7
20260905111641 11 278 0.0 0.0 0.00 0.00 0.00 76 1013.9
20260905110051 11 328 0.0 0.0 0.00 0.00 0.00 78 1013.8
20260905104550 11 328 0.0 0.0 0.00 0.00 0.00 76 1013.4
20260905103048 11 328 0.0 0.0 0.00 0.00 0.00 75 1013.3
20260905101556 11 328 0.0 0.0 0.00 0.00 0.00 76 1013.3
20260905100050 11 328 0.0 0.0 0.00 0.00 0.00 76 1013.4
20260905094545 11 329 0.0 0.0 0.00 0.00 0.00 76 1013.0
20260905093044 11 329 0.0 0.0 0.00 0.00 0.00 74 1013.0
20260905091543 12 328 0.0 0.0 0.00 0.00 0.00 73 1013.1
20260905090043 12 328 0.0 0.0 0.00 0.00 0.00 73 1013.1
20260905084548 12 328 0.0 0.0 0.00 0.00 0.00 72 1013.3
20260905083041 12 328 0.0 0.0 0.00 0.00 0.00 71 1013.1
20260905081540 11 328 0.0 0.0 0.00 0.00 0.00 73 1013.1
20260905080048 11 332 0.0 0.0 0.00 0.00 0.00 74 1013.0
20260905074541 12 332 0.0 0.0 0.00 0.00 0.00 71 1012.8
20260905073035 12 78 0.0 0.0 0.00 0.00 0.00 66 1012.1
20260905071533 12 78 0.0 0.0 0.00 0.00 0.00 70 1012.1
20260905070025 11 77 0.0 0.0 0.00 0.00 0.00 73 1012.0
20260905064523 10 65 0.0 0.0 0.00 0.00 0.00 75 1011.9
20260905063022 9 65 0.0 0.0 0.00 0.00 0.00 76 1011.8
20260905061525 10 65 0.0 0.0 0.00 0.00 0.00 72 1011.6
20260905060026 10 65 0.0 0.0 0.00 0.00 0.00 70 1011.5
20260905054518 11 65 0.0 0.0 0.00 0.00 0.00 70 1011.4
20260905053018 11 65 0.0 0.0 0.00 0.00 0.00 70 1011.4
20260905051522 10 64 0.0 0.0 0.00 0.00 0.00 70 1011.4
20260905050017 11 52 0.0 0.0 0.00 0.00 0.00 68 1011.1
20260905044517 11 52 0.0 0.0 0.00 0.00 0.00 68 1011.1
20260905043016 11 52 0.0 0.0 0.00 0.00 0.00 67 1011.3
20260905041516 12 51 0.0 0.0 0.00 0.00 0.00 65 1011.4
20260905040016 12 51 0.0 0.0 0.00 0.00 0.00 61 1011.3
20260905034515 13 55 0.0 0.0 0.00 0.00 0.00 57 1011.2
20260905033028 14 55 0.0 0.0 0.00 0.00 0.00 56 1011.0
20260905031515 15 55 0.0 0.0 0.00 0.00 0.00 54 1010.9
20260905030015 16 54 0.0 0.0 0.00 0.00 0.00 52 1011.0
20260905024513 16 55 0.0 0.0 0.00 0.00 0.00 48 1010.8
20260905023012 16 55 0.0 0.0 0.00 0.00 0.00 47 1010.7
20260905021515 17 54 0.0 0.0 0.00 0.00 0.00 47 1010.7
20260905020013 17 56 0.0 0.0 0.00 0.00 0.00 47 1010.6
20260905014510 17 50 0.0 0.0 0.00 0.00 0.00 46 1010.6
20260905013015 18 14 0.0 0.0 0.00 0.00 0.00 46 1010.5
20260905011510 18 76 0.0 0.0 0.00 0.00 0.00 45 1010.5
20260905010010 18 87 0.0 0.0 0.00 0.00 0.00 47 1010.4
20260905004509 19 102 0.0 0.0 0.00 0.00 0.00 44 1010.3
20260905003009 21 303 0.0 0.0 0.00 0.00 0.00 36 1010.1
20260905001509 21 297 0.0 0.0 0.00 0.00 0.00 38 1010.0
20260905000011 20 9 0.0 0.0 0.00 0.00 0.00 37 1010.0
20260904234508 21 4 0.0 0.0 0.00 0.00 0.00 36 1010.0
20260904233007 21 55 0.0 0.0 0.00 0.00 0.00 37 1010.1
20260904231509 20 55 0.0 0.0 0.00 0.00 0.00 42 1010.1
20260904230007 20 55 0.0 0.0 0.00 0.00 0.00 40 1010.2
20260904224509 20 55 0.0 0.0 0.00 0.00 0.00 37 1010.3
20260904223006 21 40 0.0 0.0 0.00 0.00 0.00 35 1010.2
20260904221505 22 343 0.0 0.0 0.00 0.00 0.00 37 1010.2
20260904220002 21 342 0.0 0.0 0.00 0.00 0.00 36 1010.4
20260904214602 21 340 0.0 0.0 0.00 0.00 0.00 36 1010.4
20260904213057 20 346 0.0 0.0 0.00 0.00 0.00 41 1010.3
20260904211556 20 333 0.0 0.0 0.00 0.00 0.00 39 1010.3
20260904210057 20 333 0.0 0.0 0.00 0.00 0.00 38 1010.3
20260904204554 20 333 0.0 0.0 0.00 0.00 0.00 40 1010.2
20260904203054 20 333 0.0 0.0 0.00 0.00 0.00 44 1010.2
20260904201553 20 333 0.0 0.0 0.00 0.00 0.00 44 1010.4
20260904200057 19 332 0.0 0.0 0.00 0.00 0.00 45 1010.4
20260904194549 20 322 0.0 0.0 0.00 0.00 0.00 43 1010.4
20260904193047 19 322 0.0 0.0 0.00 0.00 0.00 45 1010.7
20260904191546 19 322 0.0 0.0 0.00 0.00 0.00 45 1010.7
20260904190048 18 318 0.0 0.0 0.00 0.00 0.00 47 1010.7
20260904184544 18 318 0.0 0.0 0.00 0.00 0.00 47 1010.9
20260904183101 19 318 0.0 0.0 0.00 0.00 0.00 45 1010.9
20260904181543 18 316 0.0 0.0 0.00 0.00 0.00 46 1011.1
20260904180136 17 312 0.0 0.0 0.00 0.00 0.00 49 1011.1
20260904174534 17 312 0.0 0.0 0.00 0.00 0.00 49 1011.2
20260904173030 17 312 0.0 0.0 0.00 0.00 0.00 51 1011.1
20260904171526 16 313 0.0 0.0 0.00 0.00 0.00 55 1011.0
20260904170025 15 313 0.0 0.0 0.00 0.00 0.00 57 1011.2
20260904164520 15 313 0.0 0.0 0.00 0.03 0.00 61 1011.1
20260904163017 13 313 0.0 0.0 0.00 0.03 0.00 63 1010.8
20260904161513 13 313 0.0 0.0 0.00 0.03 0.00 65 1010.7
20260904160008 12 313 0.0 0.0 0.00 0.03 0.00 70 1010.8
20260904154507 10 313 0.0 0.0 0.00 0.03 0.00 75 1010.9
20260904153006 10 283 0.0 0.0 0.00 0.03 0.00 77 1010.8
20260904151508 9 281 0.0 0.0 0.00 0.03 0.00 78 1010.6
20260904150005 8 338 0.0 0.0 0.00 0.03 0.00 80 1010.7
20260904144503 7 329 0.0 0.0 0.00 0.03 0.00 83 1010.6